GW7366 Weather Reports


time (UTC)temp
F
wind
direction
speed
knots
gust
knots
rain 1hr
in
rain 24hr
in
rain mn
in
humidity
%
barometer
mb
20260906105937 66 39 1.7 3.5 0.00 0.00 0.00 97 1018.8
20260906105434 66 39 0.0 1.7 0.00 0.00 0.00 97 1018.8
20260906104930 67 39 0.0 0.0 0.00 0.00 0.00 97 1018.8
20260906104428 67 39 1.7 3.5 0.00 0.00 0.00 97 1018.8
20260906103927 67 39 0.9 2.6 0.00 0.00 0.00 97 1018.5
20260906103425 67 39 0.9 2.6 0.00 0.00 0.00 97 1018.5
20260906102921 67 39 0.0 0.0 0.00 0.00 0.00 97 1018.5
20260906102420 67 39 0.9 1.7 0.00 0.00 0.00 97 1018.5
20260906101915 67 39 1.7 2.6 0.00 0.00 0.00 97 1018.5
20260906101411 67 39 0.0 1.7 0.00 0.00 0.00 97 1018.1
20260906100906 67 39 0.9 1.7 0.00 0.00 0.00 97 1018.1
20260906100405 67 39 0.0 1.7 0.00 0.00 0.00 97 1018.1
20260906095900 68 39 1.7 1.7 0.00 0.00 0.00 97 1018.1
20260906095356 68 39 0.9 1.7 0.00 0.00 0.00 97 1018.1
20260906094855 68 39 2.6 3.5 0.00 0.00 0.00 97 1018.1
20260906094350 68 39 2.6 4.3 0.00 0.00 0.00 97 1018.1
20260906093847 68 39 2.6 3.5 0.00 0.00 0.00 96 1018.1
20260906093343 68 39 2.6 3.5 0.00 0.00 0.00 96 1018.1
20260906092837 68 39 2.6 3.5 0.00 0.00 0.00 96 1018.1
20260906092337 68 39 2.6 3.5 0.00 0.00 0.00 96 1018.1
20260906091833 68 39 3.5 4.3 0.00 0.00 0.00 96 1018.1
20260906091329 69 39 2.6 2.6 0.00 0.00 0.00 96 1018.1
20260906090825 69 39 2.6 3.5 0.00 0.00 0.00 96 1018.1
20260906090324 69 39 2.6 4.3 0.00 0.00 0.00 96 1018.1
20260906085824 69 39 2.6 4.3 0.00 0.00 0.00 96 1018.1
20260906085323 69 53 1.7 3.5 0.00 0.00 0.00 97 1018.1
20260906084819 69 53 1.7 3.5 0.00 0.00 0.00 97 1018.1
20260906084318 69 53 3.5 4.3 0.00 0.00 0.00 97 1018.1
20260906083813 69 51 2.6 4.3 0.00 0.00 0.00 97 1018.1
20260906083309 69 55 4.3 5.2 0.00 0.00 0.00 97 1018.1
20260906082809 69 59 1.7 2.6 0.00 0.00 0.00 97 1018.1
20260906082306 69 44 2.6 4.3 0.00 0.00 0.00 97 1017.8
20260906081759 69 32 2.6 5.2 0.00 0.00 0.00 97 1017.8
20260906081255 69 32 2.6 3.5 0.00 0.00 0.00 97 1018.1
20260906080751 69 32 2.6 4.3 0.00 0.00 0.00 97 1018.1
20260906080248 69 32 2.6 3.5 0.00 0.00 0.00 97 1018.1
20260906075747 69 32 1.7 3.5 0.00 0.00 0.00 97 1018.1
20260906075247 69 32 2.6 4.3 0.00 0.00 0.00 97 1018.1
20260906074743 69 32 3.5 3.5 0.00 0.00 0.00 97 1018.1
20260906074242 70 32 2.6 4.3 0.00 0.00 0.00 97 1018.1
20260906073741 70 32 2.6 3.5 0.00 0.00 0.00 97 1017.8
20260906073236 70 32 3.5 4.3 0.00 0.00 0.00 97 1017.8
20260906072732 70 32 4.3 5.2 0.00 0.00 0.00 97 1018.1
20260906072228 70 32 2.6 3.5 0.00 0.00 0.00 97 1017.8
20260906071724 70 43 3.5 4.3 0.00 0.00 0.00 97 1017.8
20260906071223 70 21 3.5 4.3 0.00 0.00 0.00 97 1017.8
20260906070720 70 21 2.6 4.3 0.00 0.00 0.00 97 1017.8
20260906070216 70 21 2.6 3.5 0.00 0.00 0.00 97 1017.8
20260906065715 70 21 4.3 5.2 0.00 0.00 0.00 97 1018.1
20260906065210 70 39 3.5 4.3 0.00 0.00 0.00 97 1017.8
20260906064706 70 39 2.6 3.5 0.00 0.00 0.00 96 1018.1
20260906064201 70 39 2.6 4.3 0.00 0.00 0.00 96 1018.1
20260906063656 70 39 2.6 3.5 0.00 0.00 0.00 96 1018.1
20260906063152 70 39 2.6 3.5 0.00 0.00 0.00 96 1018.1
20260906062648 70 39 3.5 5.2 0.00 0.00 0.00 96 1018.1
20260906062146 70 39 3.5 4.3 0.00 0.00 0.00 96 1018.1
20260906061643 70 39 3.5 5.2 0.00 0.00 0.00 96 1018.1
20260906061142 70 39 3.5 3.5 0.00 0.00 0.00 95 1018.1
20260906060639 70 39 2.6 2.6 0.00 0.00 0.00 95 1018.1
20260906060136 70 39 1.7 3.5 0.00 0.00 0.00 95 1018.1
20260906055631 71 39 0.9 1.7 0.00 0.00 0.00 95 1017.8
20260906055126 71 39 1.7 1.7 0.00 0.00 0.00 95 1017.8
20260906054621 71 39 1.7 1.7 0.00 0.00 0.00 94 1017.8
20260906054117 71 39 0.9 1.7 0.00 0.00 0.00 94 1017.8
20260906053613 71 39 2.6 3.5 0.00 0.00 0.00 93 1017.5
20260906053108 71 39 1.7 3.5 0.00 0.00 0.00 92 1017.5
20260906052604 72 39 1.7 2.6 0.00 0.00 0.00 92 1017.5
20260906052100 72 39 1.7 3.5 0.00 0.00 0.00 92 1017.5
20260906051556 72 40 2.6 4.3 0.00 0.00 0.00 92 1017.5
20260906051051 72 49 2.6 2.6 0.00 0.00 0.00 92 1017.5
20260906050546 72 49 3.5 5.2 0.00 0.00 0.00 92 1017.5
20260906050041 72 356 1.7 5.2 0.00 0.00 0.00 92 1017.0
20260906045539 72 48 3.5 5.2 0.00 0.00 0.00 91 1017.5
20260906045035 72 23 3.5 7.0 0.00 0.00 0.00 91 1017.5
20260906044530 72 25 4.3 6.1 0.00 0.00 0.00 91 1017.5
20260906044026 72 62 2.6 3.5 0.00 0.00 0.00 91 1017.0
20260906043521 72 24 6.1 7.8 0.00 0.00 0.00 91 1017.5
20260906043018 72 17 4.3 5.2 0.00 0.00 0.00 91 1017.5
20260906042517 72 17 4.3 5.2 0.00 0.00 0.00 91 1017.0
20260906042017 72 17 4.3 6.1 0.00 0.00 0.00 91 1017.0
20260906041513 72 28 4.3 5.2 0.00 0.00 0.00 91 1017.0
20260906041013 72 29 3.5 5.2 0.00 0.00 0.00 91 1017.0
20260906040508 72 27 5.2 6.1 0.00 0.00 0.00 91 1017.0
20260906040003 72 20 3.5 5.2 0.00 0.00 0.00 91 1017.0
20260906035458 72 15 5.2 6.1 0.00 0.00 0.00 91 1017.0
20260906034954 72 51 3.5 4.3 0.00 0.00 0.00 91 1017.0
20260906034454 72 19 6.1 8.7 0.00 0.00 0.00 91 1017.0
20260906033949 72 17 3.5 5.2 0.00 0.00 0.00 91 1017.0
20260906033444 71 38 3.5 5.2 0.00 0.00 0.00 91 1017.0
20260906032940 71 22 4.3 5.2 0.00 0.00 0.00 91 1017.0
20260906032437 71 19 4.3 6.1 0.00 0.00 0.00 92 1017.0
20260906031936 71 19 5.2 6.1 0.00 0.00 0.00 92 1017.0
20260906031432 71 31 5.2 7.8 0.00 0.00 0.00 92 1017.0
20260906030927 71 19 5.2 7.0 0.00 0.00 0.00 92 1017.0
20260906030422 71 30 4.3 5.2 0.00 0.00 0.00 91 1017.0
20260906025922 72 31 5.2 7.8 0.00 0.00 0.00 91 1017.0
20260906025416 72 21 6.1 7.8 0.00 0.00 0.00 91 1016.7
20260906024915 72 30 5.2 7.8 0.00 0.00 0.00 91 1016.7
20260906024414 72 14 5.2 8.7 0.00 0.00 0.00 91 1017.0
20260906023910 71 19 5.2 7.0 0.00 0.00 0.00 92 1017.0
20260906023406 71 22 5.2 8.7 0.00 0.00 0.00 93 1016.7
20260906022906 71 0 4.3 5.2 0.00 0.00 0.00 93 1017.0
20260906022401 71 14 4.3 5.2 0.00 0.00 0.00 93 1017.0
20260906021857 71 14 3.5 4.3 0.00 0.00 0.00 93 1016.7
20260906021356 71 23 3.5 5.2 0.00 0.00 0.00 93 1016.7
20260906020851 71 15 3.5 4.3 0.00 0.00 0.00 93 1016.7
20260906020350 71 15 4.3 6.1 0.00 0.00 0.00 93 1016.7
20260906015845 71 15 4.3 5.2 0.00 0.00 0.00 92 1016.7
20260906015345 71 15 4.3 6.1 0.00 0.00 0.00 92 1016.7
20260906014845 72 15 3.5 4.3 0.00 0.00 0.00 92 1016.7
20260906014344 72 7 4.3 6.1 0.00 0.00 0.00 92 1016.7
20260906013841 72 3 3.5 4.3 0.00 0.00 0.00 91 1016.7
20260906013336 72 2 4.3 6.1 0.00 0.00 0.00 91 1016.4
20260906012831 72 0 4.3 6.1 0.00 0.00 0.00 91 1016.4
20260906012326 72 10 5.2 7.8 0.00 0.00 0.00 90 1016.4
20260906011821 73 21 5.2 7.8 0.00 0.00 0.00 90 1016.4
20260906011315 73 356 4.3 7.0 0.00 0.00 0.00 90 1016.4
20260906010811 73 10 5.2 7.0 0.00 0.00 0.00 90 1016.4
20260906010307 73 18 4.3 5.2 0.00 0.00 0.00 89 1016.4
20260906005802 73 8 4.3 6.1 0.00 0.00 0.00 89 1016.0
20260906005301 73 40 6.1 8.7 0.00 0.00 0.00 89 1016.0
20260906004800 74 38 4.3 7.8 0.00 0.00 0.00 88 1016.0
20260906004255 74 17 5.2 7.0 0.00 0.00 0.00 88 1016.0
20260906003755 74 28 4.3 7.0 0.00 0.00 0.00 88 1016.0
20260906003251 74 19 6.1 7.8 0.00 0.00 0.00 87 1016.0
20260906002746 75 5 5.2 7.0 0.00 0.00 0.00 87 1016.0
20260906002246 75 15 5.2 6.1 0.00 0.00 0.00 86 1015.7
20260906001742 76 21 7.0 9.6 0.00 0.00 0.00 86 1015.7
20260906001237 76 26 7.0 8.7 0.00 0.00 0.00 85 1015.7
20260906000732 77 22 8.7 11.3 0.00 0.00 0.00 85 1016.0
20260906000233 77 32 5.2 8.7 0.00 0.00 0.00 85 1015.7
20260905235727 78 13 7.8 10.4 0.00 0.00 0.00 84 1015.7
20260905235221 78 15 7.0 8.7 0.00 0.00 0.00 84 1015.7
20260905234717 78 34 7.0 10.4 0.00 0.00 0.00 84 1015.7
20260905234212 79 24 7.0 9.6 0.00 0.00 0.00 83 1015.3
20260905233707 79 16 7.0 8.7 0.00 0.00 0.00 82 1015.3
20260905233207 80 34 7.8 10.4 0.00 0.00 0.00 81 1015.3
20260905232702 80 31 7.0 9.6 0.00 0.00 0.00 81 1015.3
20260905232157 81 18 6.1 8.7 0.00 0.00 0.00 80 1015.3
20260905231653 81 20 8.7 12.2 0.00 0.00 0.00 79 1015.0
20260905231148 81 14 8.7 10.4 0.00 0.00 0.00 79 1015.0
20260905230644 82 23 8.7 11.3 0.00 0.00 0.00 78 1015.0
20260905230142 82 17 7.8 11.3 0.00 0.00 0.00 77 1014.7
20260905225642 83 37 9.6 14.8 0.00 0.00 0.00 77 1014.7
20260905225142 83 24 6.1 9.6 0.00 0.00 0.00 76 1014.7
20260905224642 84 26 9.6 14.8 0.00 0.00 0.00 75 1014.7
20260905224141 84 24 7.8 11.3 0.00 0.00 0.00 75 1014.7
20260905223638 84 26 7.0 10.4 0.00 0.00 0.00 75 1014.7
20260905223135 85 26 7.8 12.2 0.00 0.00 0.00 74 1014.7
20260905222630 85 23 9.6 13.0 0.00 0.00 0.00 73 1014.7
20260905222125 85 15 8.7 13.0 0.00 0.00 0.00 73 1014.7
20260905221621 85 11 9.6 12.2 0.00 0.00 0.00 73 1014.7
20260905221117 86 10 7.8 11.3 0.00 0.00 0.00 74 1014.7
20260905220613 86 10 9.6 11.3 0.00 0.00 0.00 72 1014.3
20260905220109 87 17 8.7 11.3 0.00 0.00 0.00 72 1014.3
20260905215608 87 11 8.7 12.2 0.00 0.00 0.00 72 1014.0
20260905215104 87 3 7.0 11.3 0.00 0.00 0.00 72 1014.3
20260905214600 87 13 6.1 8.7 0.00 0.00 0.00 73 1014.0
20260905214100 87 358 6.1 9.6 0.00 0.00 0.00 73 1014.3
20260905213601 87 17 8.7 9.6 0.00 0.00 0.00 72 1014.3
20260905213056 88 25 9.6 13.0 0.00 0.00 0.00 72 1014.0
20260905212556 88 4 9.6 13.0 0.00 0.00 0.00 72 1014.0
20260905212056 88 10 9.6 12.2 0.00 0.00 0.00 72 1014.0
20260905211551 89 15 7.0 10.4 0.00 0.00 0.00 72 1014.0
20260905211047 89 22 7.8 9.6 0.00 0.00 0.00 71 1014.0
20260905210543 89 2 6.1 8.7 0.00 0.00 0.00 73 1014.0
20260905210037 89 3 7.8 11.3 0.00 0.00 0.00 72 1013.6
20260905205537 89 15 8.7 14.8 0.00 0.00 0.00 72 1013.6
20260905205036 89 358 7.8 11.3 0.00 0.00 0.00 72 1013.6
20260905204531 89 347 8.7 11.3 0.00 0.00 0.00 72 1013.6
20260905204026 89 8 7.8 8.7 0.00 0.00 0.00 72 1013.6
20260905203526 90 36 8.7 12.2 0.00 0.00 0.00 72 1013.6
20260905203021 90 17 9.6 13.0 0.00 0.00 0.00 72 1013.6
20260905202517 90 4 8.7 13.0 0.00 0.00 0.00 72 1013.6
20260905202012 90 347 6.1 8.7 0.00 0.00 0.00 73 1014.0
20260905201508 91 7 7.0 9.6 0.00 0.00 0.00 73 1014.0
20260905201007 90 329 7.0 9.6 0.00 0.00 0.00 73 1014.0
20260905200503 89 352 7.0 9.6 0.00 0.00 0.00 73 1014.0
20260905200001 91 5 7.8 12.2 0.00 0.00 0.00 71 1014.0
20260905195456 92 346 6.1 10.4 0.00 0.00 0.00 71 1013.6
20260905194952 91 347 5.2 8.7 0.00 0.00 0.00 70 1014.0
20260905194451 91 333 7.8 11.3 0.00 0.00 0.00 70 1013.6
20260905193946 92 330 6.1 7.8 0.00 0.00 0.00 72 1014.0
20260905193446 92 345 4.3 5.2 0.00 0.00 0.00 71 1013.6
20260905192941 92 4 7.0 8.7 0.00 0.00 0.00 71 1014.0
20260905192436 92 327 5.2 7.8 0.00 0.00 0.00 70 1014.0
20260905191932 92 333 5.2 8.7 0.00 0.00 0.00 70 1014.0
20260905191431 92 334 2.6 6.1 0.00 0.00 0.00 71 1014.0
20260905190931 91 6 5.2 6.1 0.00 0.00 0.00 73 1014.0
20260905190429 91 342 4.3 6.1 0.00 0.00 0.00 73 1014.0
20260905185928 89 356 3.5 4.3 0.00 0.00 0.00 75 1014.3
20260905185423 90 358 5.2 7.0 0.00 0.00 0.00 71 1014.7
20260905184921 93 336 5.2 7.0 0.00 0.00 0.00 69 1014.3
20260905184416 92 320 4.3 7.8 0.00 0.00 0.00 70 1014.3
20260905183915 91 308 1.7 3.5 0.00 0.00 0.00 73 1014.3
20260905183410 90 352 3.5 4.3 0.00 0.00 0.00 74 1014.3
20260905182905 90 7 5.2 5.2 0.00 0.00 0.00 74 1014.7
20260905182404 91 1 5.2 7.8 0.00 0.00 0.00 73 1014.3
20260905181901 90 24 3.5 5.2 0.00 0.00 0.00 74 1014.7
20260905181400 90 4 4.3 7.0 0.00 0.00 0.00 74 1014.7
20260905180859 91 334 4.3 5.2 0.00 0.00 0.00 72 1014.7
20260905180354 91 349 3.5 4.3 0.00 0.00 0.00 73 1014.7
20260905175849 91 336 2.6 4.3 0.00 0.00 0.00 73 1014.7
20260905175343 91 13 3.5 4.3 0.00 0.00 0.00 71 1014.7
20260905174838 91 10 3.5 4.3 0.00 0.00 0.00 71 1014.7
20260905174334 91 11 0.9 2.6 0.00 0.00 0.00 73 1014.7
20260905173830 90 356 3.5 3.5 0.00 0.00 0.00 72 1014.7
20260905173326 91 356 3.5 5.2 0.00 0.00 0.00 71 1014.7
20260905172826 91 356 3.5 6.1 0.00 0.00 0.00 71 1014.7
20260905172324 91 356 4.3 6.1 0.00 0.00 0.00 72 1014.7
20260905171820 91 352 4.3 5.2 0.00 0.00 0.00 71 1014.7
20260905171317 91 310 0.0 0.0 0.00 0.00 0.00 71 1015.0
20260905170813 91 310 4.3 5.2 0.00 0.00 0.00 72 1015.0
20260905170308 91 334 2.6 3.5 0.00 0.00 0.00 71 1015.0
20260905165807 91 343 3.5 4.3 0.00 0.00 0.00 70 1015.0
20260905165306 91 306 0.9 1.7 0.00 0.00 0.00 72 1015.0
20260905164803 91 306 1.7 4.3 0.00 0.00 0.00 72 1015.0
20260905164258 90 306 1.7 5.2 0.00 0.00 0.00 72 1015.0
20260905163753 90 306 3.5 7.0 0.00 0.00 0.00 73 1015.0
20260905163249 90 319 4.3 6.1 0.00 0.00 0.00 73 1015.0
20260905162745 89 342 3.5 5.2 0.00 0.00 0.00 75 1015.0
20260905162245 88 342 3.5 4.3 0.00 0.00 0.00 74 1015.3
20260905161739 88 340 3.5 6.1 0.00 0.00 0.00 74 1015.3
20260905161238 88 342 3.5 6.1 0.00 0.00 0.00 74 1015.3
20260905160737 90 324 3.5 5.2 0.00 0.00 0.00 72 1015.3
20260905160237 90 345 4.3 6.1 0.00 0.00 0.00 71 1015.0
20260905155732 90 330 1.7 6.1 0.00 0.00 0.00 73 1015.0
20260905155231 89 332 2.6 4.3 0.00 0.00 0.00 72 1015.0
20260905154725 89 330 2.6 4.3 0.00 0.00 0.00 72 1015.0
20260905154221 89 333 0.9 2.6 0.00 0.00 0.00 74 1015.0
20260905153716 88 334 2.6 5.2 0.00 0.00 0.00 74 1015.0
20260905153212 88 342 4.3 7.0 0.00 0.00 0.00 76 1015.0
20260905152707 87 0 5.2 7.8 0.00 0.00 0.00 76 1015.0
20260905152201 87 1 4.3 6.1 0.00 0.00 0.00 77 1015.0
20260905151655 87 358 5.2 8.7 0.00 0.00 0.00 76 1015.0
20260905151151 87 333 3.5 5.2 0.00 0.00 0.00 77 1015.0
20260905150646 87 333 3.5 4.3 0.00 0.00 0.00 77 1015.0
20260905150145 86 333 3.5 5.2 0.00 0.00 0.00 76 1015.0
20260905145643 86 330 3.5 4.3 0.00 0.00 0.00 79 1015.0
20260905145143 85 330 2.6 4.3 0.00 0.00 0.00 79 1015.0
20260905144637 85 330 3.5 5.2 0.00 0.00 0.00 80 1015.0
20260905144136 84 330 3.5 5.2 0.00 0.00 0.00 81 1015.0
20260905143632 84 330 3.5 4.3 0.00 0.00 0.00 81 1014.7
20260905143131 84 330 4.3 5.2 0.00 0.00 0.00 82 1015.0
20260905142630 83 0 3.5 5.2 0.00 0.00 0.00 84 1014.7
20260905142130 82 0 1.7 3.5 0.00 0.00 0.00 85 1015.0
20260905141630 82 0 1.7 2.6 0.00 0.00 0.00 85 1015.3
20260905141127 83 0 2.6 4.3 0.00 0.00 0.00 84 1015.7
20260905140622 83 0 1.7 3.5 0.00 0.00 0.00 84 1015.3
20260905140121 82 1 3.5 3.5 0.00 0.00 0.00 85 1015.3
20260905135616 82 4 0.9 1.7 0.00 0.00 0.00 85 1015.0
20260905135111 81 4 1.7 2.6 0.00 0.00 0.00 85 1015.0
20260905134606 82 294 1.7 2.6 0.00 0.00 0.00 86 1015.0
20260905134104 81 294 0.0 1.7 0.00 0.00 0.00 86 1015.0
20260905133600 81 294 0.0 1.7 0.00 0.00 0.00 87 1015.0
20260905133100 80 294 0.0 0.0 0.00 0.00 0.00 87 1015.0
20260905132600 81 294 0.0 0.0 0.00 0.00 0.00 87 1015.0
20260905132054 80 294 0.0 0.0 0.00 0.00 0.00 86 1015.0
20260905131550 80 294 0.0 0.0 0.00 0.00 0.00 87 1015.0
20260905131045 80 294 0.0 0.0 0.00 0.00 0.00 90 1015.0
20260905130544 79 294 0.0 0.0 0.00 0.00 0.00 92 1015.0
20260905130040 78 294 0.0 0.0 0.00 0.00 0.00 93 1015.0
20260905125539 78 294 0.0 0.0 0.00 0.00 0.00 94 1015.0
20260905125035 77 294 0.0 0.0 0.00 0.00 0.00 95 1015.0
20260905124531 77 294 0.0 0.0 0.00 0.00 0.00 95 1015.0
20260905124027 77 294 0.0 0.0 0.00 0.00 0.00 96 1015.0
20260905123522 76 294 0.0 0.0 0.00 0.00 0.00 96 1015.0
20260905123020 76 294 0.0 0.0 0.00 0.00 0.00 96 1015.0
20260905122519 76 294 0.0 0.0 0.00 0.00 0.00 97 1015.0
20260905122014 76 294 0.0 0.0 0.00 0.00 0.00 97 1015.0
20260905121509 75 294 0.0 0.0 0.00 0.00 0.00 97 1015.0
20260905121008 75 294 0.0 0.0 0.00 0.00 0.00 97 1015.0
20260905120502 75 294 0.0 0.0 0.00 0.00 0.00 97 1014.7
20260905115958 74 294 0.0 0.0 0.00 0.00 0.00 97 1015.0
20260905115457 74 294 0.0 0.0 0.00 0.00 0.00 97 1014.7
20260905114952 74 294 0.0 0.0 0.00 0.00 0.00 96 1014.7
20260905114452 74 294 0.0 0.0 0.00 0.00 0.00 96 1014.7
20260905113950 74 294 0.0 0.0 0.00 0.00 0.00 96 1014.7
20260905113446 74 294 0.0 0.0 0.00 0.00 0.00 96 1014.7
20260905112941 75 294 0.0 0.0 0.00 0.00 0.00 96 1014.7
20260905112436 75 294 0.0 0.0 0.00 0.00 0.00 96 1014.7
20260905111932 75 294 0.0 0.0 0.00 0.00 0.00 97 1014.7
20260905111432 74 294 0.0 0.0 0.00 0.00 0.00 97 1014.7
20260905110927 74 294 0.0 0.0 0.00 0.00 0.00 97 1014.7
20260905110425 74 294 0.0 0.0 0.00 0.00 0.00 97 1014.7